Regional Weather Roundup
Issued by NWS

Home | Current Version | Previous Version | Graphics & Text | Print | Product List | Glossary On
Versions: 1 2 3 4 5 6 7 8 9 10 11 12 13 14 15 16 17 18 19 20 21 22 23 24 25 26 27 28 29 30 31 32 33 34 35 36 37 38 39 40 41 42 43 44 45 46 47 48 49 50
000
ASUS45 KABQ 020601
RWRNM
WEATHER ROUNDUP FOR NEW MEXICO
NATIONAL WEATHER SERVICE ALBUQUERQUE NM
1100 PM MST SUN MAR 01 2015

NOTE: "FAIR" MEANS FEW OR NO CLOUDS BELOW 12,000 FEET AGL WITH NO
       SIGNIFICANT WEATHER OR OBSTRUCTIONS TO VISION.

      THIS PRODUCT IS RELEASED AS TWO VERSIONS.  ONE VERSION NEAR
      THE TOP OF THE HOUR CONTAINING PRELIMINARY DATA FROM ALBUQUERQUE
      AND OTHER STATIONS.  A FINAL VERSION WITH ADDITIONAL DATA IS
      ISSUED ABOUT 10 MINUTES AFTER THE HOUR.

NMZ501-503-504-510>518-020700-
NORTHWEST PLATEAU/NORTHCENTRAL MOUNTAINS

CITY           SKY/WX    TMP DP  RH WIND       PRES   REMARKS
FARMINGTON     CLOUDY    37  34  89 E7        30.07S WCI  32
6HR MIN TEMP:  36; 6HR MAX TEMP:  46;

SANTA FE       PTCLDY    35  27  72 SE20      30.17R WCI  24
6HR MIN TEMP:  35; 6HR MAX TEMP:  53;

TAOS           CLEAR     30  25  80 SE6       30.15R WCI  24
ANGEL FIRE     FAIR      28  27  96 SE5       30.17F WCI  22

$$
NMZ402-403-502-505>509-020700-
WESTCENTRAL MOUNTAINS/SOUTHWEST MOUNTAINS

CITY           SKY/WX    TMP DP  RH WIND       PRES   REMARKS
GALLUP         CLEAR     39  34  82 CALM      30.09S
6HR MIN TEMP:  39; 6HR MAX TEMP:  51;

GRANTS         PTCLDY    33  30  90 SE5       30.13S WCI  28
SILVER CITY    CLOUDY    54  25  32 NW8       30.14F

$$
NMZ407-409-411-412-020700-
SOUTHERN DESERTS

CITY           SKY/WX    TMP DP  RH WIND       PRES   REMARKS
DEMING         CLOUDY    58  24  27 CALM      30.08F
6HR MIN TEMP:  56; 6HR MAX TEMP:  72;

HOLLOMAN AFB   MOCLDY    59  26  27 N13       30.06F
ALAMOGORDO     MOCLDY    59  21  23 S10       30.09F
T OR C         MOCLDY    53  26  35 CALM      30.08S
6HR MIN TEMP:  51; 6HR MAX TEMP:  67;


$$
NMZ519>523-020700-
CENTRAL VALLEYS/CENTRAL HIGHLANDS

CITY           SKY/WX    TMP DP  RH WIND       PRES   REMARKS
ALBUQUERQUE    MOCLDY    51  27  39 S12       30.10S
6HR MIN TEMP:  47; 6HR MAX TEMP:  63;

DOUBLE EAGLE   PTCLDY    38  34  86 N3        30.12S
CLINES CORNERS FOG       28  26  92 SE16      30.20S VSB 1/4 WCI  16
6HR MIN TEMP:  27; 6HR MAX TEMP:  45;

BELEN          FAIR      48  28  46 S7        30.10S
6HR MIN TEMP:  47; 6HR MAX TEMP:  65;

SOCORRO        NOT AVBL

$$
NMZ524>526-539-540-020700-
SOUTHCENTRAL MOUNTAINS

CITY           SKY/WX    TMP DP  RH WIND       PRES   REMARKS
RUIDOSO        NOT AVBL

$$
NMZ527>531-020700-
NORTHEAST HIGHLANDS/NORTHEAST PLAINS

CITY           SKY/WX    TMP DP  RH WIND       PRES   REMARKS
LAS VEGAS      FOG       25  23  92 S12       30.23F VSB 1/4 WCI  14
6HR MIN TEMP:  25; 6HR MAX TEMP:  29;

RATON          FOG       27  26  96 SW12      30.21F VSB 3/4 WCI  17
6HR MIN TEMP:  27; 6HR MAX TEMP:  31;

CLAYTON        CLOUDY    23  21  92 SE8       30.29F FOG     WCI  14
6HR MIN TEMP:  23; 6HR MAX TEMP:  28;


$$
NMZ532>537-020700-
EASTCENTRAL PLAINS

CITY           SKY/WX    TMP DP  RH WIND       PRES   REMARKS
TUCUMCARI      CLOUDY    29  27  92 E9        30.34S FOG     WCI  20
6HR MIN TEMP:  29; 6HR MAX TEMP:  33;

CANNON AFB     NOT AVBL
CLOVIS AIRPORT CLOUDY    28  28 100 E6        30.33S VSB 3/4 WCI  22

$$
NMZ028-029-538-020700-
SOUTHEAST PLAINS

CITY           SKY/WX    TMP DP  RH WIND       PRES   REMARKS
ROSWELL        CLOUDY    37  34  89 E8        30.30S WCI  31
6HR MIN TEMP:  36; 6HR MAX TEMP:  39;

ARTESIA        CLOUDY    37  37 100 SE8       30.33R WCI  31
CARLSBAD       CLOUDY    39  33  79 E10       30.31R WCI  32
6HR MIN TEMP:  38; 6HR MAX TEMP:  47;

HOBBS          CLOUDY    30  30 100 NE8       30.34R FOG     WCI  23


$$


USA.gov is the U.S. government's official web portal to all federal, state and local government web resources and services.